TimeEDT,TemperatureF,Dew PointF,Humidity,Sea Level PressureIn,VisibilityMPH,Wind Direction,Wind SpeedMPH,Gust SpeedMPH,PrecipitationIn,Events,Conditions,WindDirDegrees,DateUTC
12:53 AM,70.0,64.0,81,29.78,10.0,South,5.8,-,N/A,,Clear,190,2013-07-23 04:53:00
1:53 AM,71.1,64.0,78,29.76,10.0,South,4.6,-,N/A,,Clear,190,2013-07-23 05:53:00
2:53 AM,71.1,64.9,81,29.73,10.0,SSW,8.1,-,N/A,,Clear,200,2013-07-23 06:53:00
3:53 AM,70.0,64.0,81,29.70,10.0,SSW,9.2,-,N/A,,Clear,200,2013-07-23 07:53:00
4:53 AM,70.0,64.0,81,29.71,10.0,SSW,4.6,-,N/A,,Partly Cloudy,210,2013-07-23 08:53:00
5:53 AM,71.1,64.0,78,29.70,10.0,SSW,6.9,-,N/A,,Clear,200,2013-07-23 09:53:00
6:53 AM,72.0,64.9,78,29.70,10.0,SW,9.2,-,N/A,,Partly Cloudy,220,2013-07-23 10:53:00
7:11 AM,71.6,64.4,78,29.72,10.0,WSW,10.4,-,N/A,Thunderstorm,Mostly Cloudy,250,2013-07-23 11:11:00
7:53 AM,68.0,64.0,87,29.71,10.0,SW,6.9,-,0.33,Thunderstorm,Thunderstorm,220,2013-07-23 11:53:00
8:04 AM,69.8,64.4,83,29.71,10.0,SSW,8.1,-,N/A,,Scattered Clouds,200,2013-07-23 12:04:00
8:53 AM,71.1,66.9,87,29.70,10.0,SSW,9.2,-,N/A,,Mostly Cloudy,210,2013-07-23 12:53:00
9:53 AM,72.0,68.0,87,29.67,10.0,South,8.1,-,0.00,Rain,Light Rain,190,2013-07-23 13:53:00
10:53 AM,73.9,70.0,87,29.68,10.0,WSW,6.9,-,0.01,,Scattered Clouds,240,2013-07-23 14:53:00
11:30 AM,75.2,69.8,83,29.71,10.0,West,12.7,-,N/A,,Mostly Cloudy,270,2013-07-23 15:30:00
11:53 AM,79.0,71.1,77,29.70,10.0,West,10.4,-,N/A,,Mostly Cloudy,280,2013-07-23 15:53:00
12:41 PM,80.6,68.0,65,29.70,10.0,West,11.5,-,N/A,,Mostly Cloudy,270,2013-07-23 16:41:00
12:53 PM,79.0,69.1,72,29.70,10.0,WNW,15.0,19.6,0.00,Rain-Thunderstorm,Light Rain,300,2013-07-23 16:53:00
1:26 PM,73.4,66.2,78,29.73,10.0,NW,15.0,36.8,0.00,Rain-Thunderstorm,Light Thunderstorms and Rain,320,2013-07-23 17:26:00
1:38 PM,71.6,66.2,83,29.74,10.0,West,10.4,-,0.02,Rain-Thunderstorm,Thunderstorms and Rain,270,2013-07-23 17:38:00
1:53 PM,71.1,66.9,87,29.73,10.0,NW,4.6,-,0.05,Thunderstorm,Thunderstorm,310,2013-07-23 17:53:00
2:01 PM,71.6,66.2,83,29.74,10.0,NNW,5.8,-,N/A,Thunderstorm,Thunderstorm,330,2013-07-23 18:01:00
2:08 PM,71.6,68.0,88,29.75,10.0,NNW,5.8,-,N/A,,Overcast,330,2013-07-23 18:08:00
2:46 PM,73.4,66.2,78,29.74,10.0,North,10.4,18.4,N/A,,Overcast,350,2013-07-23 18:46:00
2:53 PM,75.9,68.0,76,29.72,10.0,North,15.0,-,N/A,,Mostly Cloudy,350,2013-07-23 18:53:00
3:00 PM,77.0,66.2,69,29.73,10.0,NNW,13.8,19.6,N/A,,Mostly Cloudy,340,2013-07-23 19:00:00
3:53 PM,75.9,61.0,60,29.73,10.0,NNW,12.7,-,N/A,,Mostly Cloudy,340,2013-07-23 19:53:00
4:53 PM,77.0,60.1,56,29.73,10.0,North,11.5,-,N/A,,Mostly Cloudy,360,2013-07-23 20:53:00
5:53 PM,77.0,57.0,50,29.73,10.0,NNW,16.1,-,N/A,,Scattered Clouds,340,2013-07-23 21:53:00
6:53 PM,73.9,55.0,52,29.76,10.0,NNW,17.3,24.2,N/A,,Partly Cloudy,340,2013-07-23 22:53:00
7:53 PM,69.1,53.1,57,29.79,10.0,NNW,20.7,27.6,N/A,,Clear,330,2013-07-23 23:53:00
8:53 PM,64.0,51.1,63,29.82,10.0,North,12.7,20.7,N/A,,Partly Cloudy,350,2013-07-24 00:53:00
9:53 PM,63.0,48.9,60,29.85,10.0,NNW,11.5,-,N/A,,Overcast,330,2013-07-24 01:53:00
10:53 PM,63.0,48.0,58,29.88,10.0,North,9.2,-,N/A,,Overcast,350,2013-07-24 02:53:00
11:53 PM,62.1,48.0,60,29.90,10.0,NNW,10.4,-,N/A,,Overcast,340,2013-07-24 03:53:00